Wind_Speed
26 27 27 27 28 30 30 28 27 28 30 31 31 30 30 30 30 29 29 29 29 28 28 27 26 26 27 27 28 28 30 31 33 35 36 37 39 40 40 40 40 39 39 38 37 37 37 37 38 38 38 37 37 37 38 38 38 39 38 38 38 38 37 37 36 36 36 36 36 36 36 36 36 37 37 38 39 39 40 41 41 42 41 40 39 38
26 27 28 27 28 28 30 29 28 28 30 32 32 32 31 31 31 31 29 29 27 26 25 25 25 26 27 28 28 29 31 33 34 35 37 38 38 39 39 38 38 37 37 37 37 37 37 38 38 38 38 38 38 38 38 38 39 39 39 39 39 38 38 37 37 36 36 35 35 36 36 36 36 36 37 38 39 39 40 41 41 41 41 40 39 38
27 28 29 28 26 27 28 30 30 30 31 32 32 32 32 32 32 30 28 27 25 25 24 25 26 27 28 29 29 30 32 33 35 36 37 37 38 38 38 37 37 37 37 37 38 38 38 39 39 39 38 38 37 37 37 37 37 37 37 38 38 38 38 37 36 36 36 35 35 36 36 36 36 36 37 38 38 39 40 40 40 40 40 40 40 39
26 27 29 28 28 28 29 31 32 32 31 31 32 32 32 31 30 28 26 25 24 25 25 26 27 28 29 29 30 31 32 34 35 36 37 37 38 38 38 38 38 38 38 38 38 38 38 38 38 38 37 37 37 36 36 37 36 36 37 37 37 37 37 37 36 36 36 36 36 36 36 36 36 36 37 38 39 39 39 39 39 39 39 39 39 39
25 26 28 29 30 30 30 30 31 31 31 31 31 31 31 29 27 26 24 24 24 25 26 27 28 28 29 30 31 32 33 34 36 37 37 38 38 38 38 38 38 38 38 37 37 38 38 38 37 37 37 37 37 37 37 37 37 37 37 37 37 37 37 37 36 36 36 36 36 36 36 36 36 37 38 38 39 39 38 38 37 37 37 37 38 39
27 27 29 30 30 30 30 29 29 30 30 31 31 30 28 26 24 23 23 23 25 26 27 28 28 29 30 30 31 32 34 35 36 37 37 37 37 37 37 37 37 36 36 36 36 37 37 37 37 37 37 37 37 37 37 37 37 37 37 37 37 37 37 37 36 36 37 37 37 37 38 38 38 38 38 39 39 39 38 37 37 36 36 36 37 38
29 30 30 30 30 29 28 27 27 28 29 30 30 28 26 23 22 22 23 24 25 26 28 29 29 30 30 31 32 33 34 35 36 36 36 36 36 36 36 36 35 35 36 36 36 37 37 37 37 37 37 37 37 37 37 37 37 37 37 37 37 37 37 37 37 37 38 38 39 39 39 39 39 39 39 39 39 39 38 38 37 36 36 35 36 36
30 31 31 29 28 27 26 26 26 27 28 28 27 24 22 21 21 23 25 27 27 28 28 29 30 31 32 32 33 34 34 34 34 34 34 34 34 34 34 34 34 35 35 36 36 37 37 37 37 37 37 37 37 37 37 37 37 37 37 38 38 38 38 38 38 39 39 39 39 39 39 39 39 38 38 38 38 38 38 38 38 37 36 36 36 36
29 31 31 27 24 22 24 26 28 28 27 25 22 19 19 21 24 26 28 28 28 29 29 30 32 33 34 34 34 34 33 33 33 33 33 33 33 33 34 34 34 35 35 36 36 36 36 36 36 36 36 36 35 36 36 37 37 38 38 38 39 39 39 39 39 39 39 39 39 39 38 38 37 37 37 37 36 37 37 37 37 37 37 37 37 37
30 28 26 23 21 21 23 27 29 27 23 20 19 19 20 23 25 27 28 29 30 30 30 31 33 34 35 35 34 33 32 32 32 33 33 33 34 34 34 34 35 35 35 35 35 35 35 35 35 35 35 35 35 36 37 38 38 38 39 39 39 39 39 39 39 39 39 38 38 37 37 36 36 36 36 35 35 35 36 36 36 36 36 36 37 37
26 23 19 19 22 25 27 27 25 22 18 18 20 22 23 24 24 25 25 28 31 33 33 33 33 33 33 33 33 32 31 31 32 32 32 32 32 32 33 33 33 33 33 33 33 34 34 33 33 34 34 35 36 37 38 38 38 38 38 38 39 39 39 38 38 38 38 37 37 36 36 35 35 35 35 35 35 35 35 35 35 35 36 36 36 36
18 18 19 23 26 27 26 22 18 17 17 19 20 22 24 26 26 26 25 27 30 33 34 34 33 32 32 32 32 31 31 30 30 30 30 29 29 28 28 28 28 28 29 29 30 31 31 31 32 33 34 35 36 37 37 37 38 38 38 38 38 38 38 37 37 37 36 36 36 35 35 35 34 34 34 34 34 34 35 35 35 36 35 35 35 35
18 21 24 26 26 22 18 15 15 17 19 20 20 20 23 26 28 28 28 29 31 32 33 33 33 33 32 31 30 29 29 29 28 28 27 26 25 25 25 24 24 25 26 26 27 28 29 30 32 33 34 34 35 36 36 37 37 37 37 37 37 37 37 36 36 36 35 35 35 35 34 34 34 34 34 34 34 35 35 36 36 36 36 35 34 34
23 25 24 21 17 14 13 15 17 19 21 23 23 24 26 29 29 29 29 30 31 32 32 31 31 31 30 29 27 26 26 26 26 26 26 25 24 24 24 24 26 27 28 29 30 30 30 31 31 31 32 33 34 34 35 35 36 36 36 36 36 36 35 35 35 35 35 35 35 35 35 35 35 35 35 35 35 35 36 37 38 37 36 35 34 34
23 20 14 10 9 12 16 19 21 22 24 26 27 28 29 30 30 29 28 28 29 31 31 30 30 29 28 26 24 23 23 23 24 25 25 26 26 27 26 27 29 31 31 31 31 30 30 30 29 29 30 31 31 32 33 34 34 35 35 35 35 35 35 35 35 35 36 36 35 35 35 36 36 36 36 36 36 36 37 38 39 38 36 35 34 34
18 13 8 8 12 18 22 24 24 25 27 28 29 29 28 28 29 29 28 27 28 28 26 23 21 20 22 25 25 24 23 23 24 25 25 28 29 29 29 29 30 32 31 30 29 29 28 28 28 29 29 30 32 33 33 34 34 34 34 34 35 35 35 36 36 36 36 36 36 37 37 37 37 37 37 36 36 36 36 37 37 37 37 36 35 35
14 13 14 15 17 22 26 27 27 27 28 28 28 28 28 28 29 29 28 27 25 23 19 13 9 8 11 23 28 27 25 24 25 26 27 29 30 31 30 29 30 30 30 28 28 28 28 28 29 29 30 31 32 33 33 34 34 35 35 35 36 36 36 36 36 36 37 37 37 37 37 37 37 37 36 36 36 36 36 36 36 37 37 37 36 36
17 19 21 20 21 24 27 27 27 28 28 28 28 29 30 30 30 29 28 25 21 17 14 11 8 7 8 9 20 30 27 25 26 27 27 28 30 31 30 29 29 28 28 27 27 28 29 29 29 31 31 32 33 34 35 35 36 36 36 36 36 36 36 37 37 37 37 37 37 36 36 37 37 37 37 37 37 37 37 37 37 37 37 36 36 37
22 24 24 23 24 26 27 27 27 27 27 28 29 29 30 30 29 27 24 22 18 16 15 13 12 12 13 17 25 31 29 27 27 26 25 27 30 31 30 27 26 26 26 28 29 30 30 30 31 32 33 34 35 36 36 36 36 36 36 36 36 36 36 36 36 37 37 36 36 37 37 37 37 37 37 37 37 37 37 37 37 36 36 36 36 36
25 26 26 26 26 27 27 28 28 28 28 29 30 29 27 27 25 21 18 16 17 20 22 20 19 20 23 26 29 31 30 28 27 26 25 26 28 29 28 25 24 25 28 30 31 31 30 30 31 32 33 34 35 35 35 35 35 35 35 35 35 36 36 36 37 37 37 37 37 37 37 37 37 37 37 37 37 37 37 36 36 36 35 35 36 36
27 28 28 28 27 26 26 28 29 30 30 30 29 27 24 22 19 16 16 19 23 25 26 23 22 25 27 28 30 31 31 28 26 25 24 24 25 27 26 24 24 26 28 30 31 30 30 30 31 31 31 32 33 33 34 34 35 35 35 35 35 36 37 37 37 37 38 38 38 38 38 38 38 37 37 37 37 36 36 36 35 35 35 35 35 36
28 29 30 30 28 27 27 29 30 30 29 28 25 22 19 19 19 21 25 27 26 25 24 23 25 28 30 30 32 32 30 27 25 23 20 14 17 24 26 25 25 26 28 29 29 28 28 28 29 29 30 31 32 33 34 34 35 35 35 36 37 37 38 38 38 38 38 38 38 38 38 38 38 38 37 37 37 36 35 35 35 35 35 35 36 36
29 29 30 29 28 28 28 28 28 27 26 24 23 22 22 24 26 27 28 26 25 24 24 26 28 30 31 31 31 30 28 25 23 21 18 11 14 22 27 26 25 25 26 28 29 29 28 28 28 28 29 31 33 33 34 35 35 36 36 37 37 38 38 38 39 39 39 38 38 38 38 38 38 38 38 37 37 36 36 36 36 36 36 36 36 36
29 29 28 27 26 26 26 26 27 27 27 27 27 28 29 30 30 30 28 26 25 26 27 28 29 29 29 29 28 27 25 23 22 21 18 12 14 22 27 26 25 25 27 29 29 29 29 29 30 30 30 31 32 33 34 35 36 36 37 38 38 38 38 38 38 38 38 38 38 38 38 38 38 38 38 37 37 37 37 37 37 37 37 37 37 37
28 27 26 25 26 27 28 29 30 31 32 32 32 32 31 31 31 30 29 28 26 25 25 25 23 22 24 25 25 25 24 23 21 20 19 15 18 24 27 26 24 24 27 30 30 29 28 29 29 29 29 30 32 33 34 35 36 37 37 37 37 37 37 37 37 38 38 38 38 38 38 38 38 38 38 37 37 38 38 38 38 38 38 37 37 38
27 27 28 29 30 31 32 33 34 34 33 33 32 31 31 31 30 28 26 24 23 22 21 17 14 15 20 22 22 22 23 22 21 20 20 17 18 21 25 25 23 24 26 28 28 28 27 29 30 31 31 31 32 34 34 35 36 36 36 36 36 36 36 36 36 37 37 37 38 38 38 38 38 38 38 38 38 38 39 39 39 39 38 38 38 39
25 26 28 30 31 32 32 33 33 33 32 32 31 31 31 30 28 25 22 22 22 21 18 11 10 12 15 16 18 21 24 23 22 21 21 20 17 17 21 23 23 23 25 27 28 28 28 29 30 31 32 32 32 32 32 33 33 33 33 33 34 34 35 36 36 37 37 38 38 39 39 39 39 39 39 39 39 39 39 39 39 39 39 38 38 38
24 26 28 29 30 31 31 31 31 31 31 31 30 30 29 28 25 21 20 22 22 21 17 12 11 10 10 9 15 23 25 24 22 21 20 18 14 13 20 24 24 24 24 26 29 30 29 28 28 28 29 29 29 29 29 28 29 30 31 32 33 34 35 36 37 38 38 38 39 39 39 39 39 39 39 39 39 39 39 39 39 39 39 37 36 35
25 27 28 29 29 29 30 30 30 30 29 29 29 28 27 25 23 21 22 24 23 20 17 14 12 11 10 12 18 24 24 23 21 20 19 17 14 16 23 25 25 24 24 23 25 27 27 26 26 25 25 26 26 25 25 25 26 28 30 32 34 35 36 36 37 37 37 38 38 38 38 38 38 38 38 39 39 39 39 39 39 38 37 36 34 33
28 29 29 29 28 28 28 29 28 28 27 27 27 26 25 24 22 22 24 24 22 19 17 16 15 14 12 13 14 14 15 20 21 21 20 16 14 17 23 24 24 24 23 17 14 14 18 22 24 24 24 25 25 25 25 26 26 27 29 31 32 33 33 34 34 35 35 35 36 36 36 36 36 37 37 38 38 38 38 39 38 37 35 33 32 31
29 29 28 28 28 28 28 27 27 26 26 25 25 24 23 22 22 22 23 22 21 20 19 19 18 18 16 10 7 6 6 19 24 23 22 18 16 17 22 21 22 24 22 16 9 6 9 13 21 27 25 25 26 26 27 27 27 27 28 29 29 29 30 31 31 32 32 33 33 34 34 35 36 37 37 38 38 38 38 38 37 35 34 33 32 31
28 28 28 28 28 27 26 26 25 25 24 24 23 23 22 22 22 21 21 21 20 20 21 21 21 21 20 13 9 8 9 21 27 26 24 20 19 21 22 21 21 23 23 21 15 9 8 6 16 27 28 27 27 27 26 26 26 26 27 28 27 27 29 29 30 30 30 32 33 34 35 36 36 37 38 38 38 38 38 38 37 36 35 33 32 31
28 28 28 27 27 26 25 24 24 23 23 23 23 23 22 22 22 21 21 21 21 21 21 21 21 21 21 19 17 17 21 25 27 27 25 22 20 20 23 22 22 22 23 23 21 17 12 9 15 23 27 28 27 26 26 25 25 25 26 26 26 26 28 28 29 29 31 32 33 34 34 35 35 36 36 37 37 37 37 37 37 36 35 33 31 30
27 27 27 26 25 25 24 23 23 23 23 23 23 23 22 22 22 22 22 22 22 22 22 22 22 21 21 19 19 21 25 27 28 27 26 23 20 20 23 22 21 21 21 19 20 20 17 17 17 17 19 26 28 27 26 25 25 25 25 25 25 26 27 28 29 30 31 31 31 31 32 32 32 33 34 34 35 35 35 35 36 36 35 34 31 29
26 26 25 24 24 23 23 23 24 24 24 23 23 23 23 23 23 23 23 23 23 23 23 23 23 23 22 20 18 19 25 29 30 29 27 25 23 22 22 22 22 21 18 17 15 13 10 15 18 17 12 17 23 27 27 26 25 25 25 26 26 26 27 28 29 29 30 30 29 29 30 30 31 31 32 32 33 33 34 34 34 35 35 35 34 31
24 24 24 23 23 23 24 24 24 24 24 24 24 24 24 24 24 24 24 25 25 25 25 25 25 25 25 24 23 23 26 30 32 31 29 27 25 23 21 22 24 23 19 17 14 11 8 10 15 19 16 12 14 21 27 28 27 26 26 26 26 27 28 28 28 28 28 28 28 29 30 30 30 31 31 32 33 33 34 34 35 35 36 37 37 36
22 22 22 23 23 23 23 24 24 24 24 24 24 25 25 25 26 26 26 26 27 27 27 27 27 27 27 27 27 28 30 31 32 33 32 31 29 26 23 23 25 25 21 18 16 14 12 10 11 13 12 10 9 13 22 28 29 28 27 26 26 26 27 28 28 27 27 28 28 28 29 29 29 30 31 31 32 33 33 34 34 35 36 37 38 39
21 21 22 23 23 23 24 24 24 24 24 25 25 26 26 27 27 27 26 26 27 27 27 27 27 28 29 29 30 32 33 34 35 36 36 34 32 30 25 24 25 25 23 21 20 18 13 11 11 11 10 9 12 18 24 26 27 27 28 28 27 26 26 27 27 27 26 26 27 28 28 29 29 29 30 30 30 30 30 30 31 32 33 34 36 37
21 21 22 23 23 23 24 24 24 25 25 25 26 26 26 27 27 27 26 26 26 26 27 27 27 28 29 31 32 32 33 33 34 34 34 33 32 31 28 25 24 25 25 23 22 20 16 12 10 9 10 9 13 20 26 26 25 26 28 29 28 27 25 25 25 25 25 26 26 27 28 28 29 28 28 29 28 27 26 27 27 28 28 28 30 32
21 22 23 23 24 24 24 24 25 26 26 26 27 26 26 26 26 26 26 25 25 26 26 27 27 27 28 28 29 29 30 31 31 31 31 31 31 30 29 26 24 24 24 22 21 20 18 15 14 13 13 11 11 14 20 23 25 26 26 21 20 23 26 26 25 25 26 26 27 26 27 27 27 27 26 26 26 25 25 25 25 25 25 24 24 24
21 22 23 24 24 24 24 25 26 26 27 27 26 26 25 25 25 25 26 26 25 25 26 25 25 26 26 27 27 27 27 27 27 27 28 29 30 30 28 27 25 23 22 21 20 19 19 18 18 18 19 17 16 17 19 22 25 26 25 18 18 23 28 28 27 26 26 25 25 25 25 26 26 26 26 26 26 26 26 26 25 25 25 25 24 22
22 22 23 24 24 25 25 26 26 26 26 26 25 24 24 24 24 25 25 26 26 26 26 25 24 25 25 25 24 24 24 25 25 25 26 27 27 27 26 26 24 23 21 20 20 20 21 20 19 18 18 18 17 14 14 21 26 26 23 21 23 26 27 27 26 24 24 24 25 25 25 24 24 25 26 26 26 27 27 26 26 25 24 24 24 24
22 23 24 24 25 25 26 26 26 26 25 25 25 24 24 24 24 24 24 25 25 26 26 25 24 23 23 23 24 25 25 24 24 24 24 24 23 23 22 22 22 22 22 20 20 21 22 21 20 20 20 20 18 15 12 18 23 25 24 24 23 18 11 18 25 26 25 25 26 26 25 24 24 24 25 26 26 27 26 25 24 23 22 22 22 23
22 23 24 24 25 25 25 25 25 25 25 25 25 25 25 25 24 24 24 24 24 25 24 24 23 22 21 21 23 24 24 23 23 22 21 21 20 19 19 20 21 22 22 21 19 19 20 20 20 21 21 20 18 17 15 17 19 22 24 25 23 18 12 16 23 26 26 26 26 26 26 25 25 25 24 25 25 25 25 25 24 22 21 19 19 20
23 23 24 24 24 24 24 25 25 25 25 25 24 25 25 25 24 24 24 23 24 24 23 23 21 19 18 19 21 22 23 23 22 21 20 20 19 19 20 21 22 22 22 21 21 20 18 18 20 21 22 20 18 17 16 17 18 20 23 24 24 23 23 25 25 24 23 23 24 26 28 27 26 24 21 21 22 23 24 23 23 22 21 20 18 17
22 23 23 24 24 24 24 25 25 25 25 25 25 25 25 25 24 24 23 23 23 22 23 23 20 16 14 16 19 21 21 21 22 21 21 21 21 22 22 21 21 21 21 21 22 22 22 21 21 21 21 19 18 18 19 19 17 17 20 23 24 23 23 24 23 23 22 22 23 25 27 27 24 20 17 17 19 21 22 22 21 21 21 21 19 17
22 23 23 24 24 24 24 25 25 25 25 25 25 25 25 24 24 24 23 23 22 22 23 22 20 17 16 17 18 18 17 18 20 22 22 22 22 22 22 22 21 21 21 21 22 23 24 24 24 22 19 15 12 13 17 18 17 16 18 21 22 21 21 22 23 24 24 22 22 23 25 24 20 17 17 17 18 19 20 21 21 22 22 22 21 18
22 23 23 23 24 24 24 24 24 24 24 25 25 26 25 24 23 23 22 23 22 22 21 20 19 17 17 18 18 18 17 17 18 20 21 21 22 22 22 22 23 23 22 21 21 21 22 22 23 22 21 16 11 9 13 17 18 18 18 20 19 18 18 20 23 24 24 24 24 25 24 21 17 15 16 15 15 15 17 19 20 22 24 23 22 20
22 22 23 23 23 23 24 24 24 24 24 25 26 26 26 25 24 23 22 22 22 21 20 19 18 17 16 17 18 19 19 19 19 19 20 20 21 22 22 23 23 23 22 22 21 21 20 20 19 18 17 18 16 14 15 17 19 20 19 19 18 17 17 18 21 23 23 24 25 26 25 21 19 18 16 12 9 11 15 18 20 23 25 26 25 23
22 22 22 22 23 23 23 24 24 24 24 25 25 26 26 26 25 23 22 21 20 20 19 18 17 16 15 16 17 18 18 18 18 18 19 20 21 21 21 22 22 22 21 20 20 20 19 18 17 16 13 12 14 15 15 16 18 19 19 18 18 17 17 17 20 22 23 23 24 25 25 23 21 20 18 12 9 9 12 16 20 23 25 27 27 26
22 22 22 22 22 23 23 24 24 24 24 24 25 25 24 24 24 23 22 21 20 20 19 19 18 16 15 16 17 18 18 17 17 17 19 19 20 20 19 19 19 18 16 12 12 13 13 11 10 11 11 12 12 11 13 15 16 16 16 18 19 20 18 17 19 22 24 23 23 23 23 22 21 20 18 15 10 8 9 11 16 22 25 28 28 28
Wind_Direction
296 299 302 304 305 303 302 303 304 304 303 303 301 300 299 297 296 295 294 293 292 291 290 289 288 287 286 285 285 286 288 289 291 292 293 293 294 293 293 292 291 289 288 288 287 287 288 288 289 289 289 289 288 288 288 287 287 287 287 287 287 287 286 286 285 283 281 280 280 279 279 279 279 278 278 277 275 274 272 271 271 270 269 268 266 265
300 301 302 304 305 303 302 304 305 304 302 302 301 299 298 297 296 295 294 293 291 290 289 288 288 287 286 285 286 287 289 291 292 293 293 293 293 293 293 291 290 289 289 289 289 290 290 290 290 290 289 289 289 288 288 288 288 287 287 288 288 288 287 285 284 282 281 280 279 278 278 278 278 277 277 276 275 273 272 271 270 270 270 269 268 267
304 304 303 305 305 304 303 304 304 302 300 299 299 298 297 295 295 294 293 292 291 289 288 287 287 287 287 287 287 288 290 291 292 293 293 293 293 293 292 291 291 290 290 290 290 290 290 290 289 289 288 288 288 288 288 287 287 287 286 286 286 285 284 283 282 281 280 279 278 277 276 276 276 276 276 276 275 274 272 271 270 269 269 269 270 269
304 304 304 305 305 302 301 301 301 300 299 297 296 296 295 294 293 292 291 291 290 289 288 288 288 288 288 288 289 289 290 291 292 293 293 294 294 293 293 292 291 290 290 290 290 289 289 289 288 288 287 287 287 287 287 287 287 286 286 285 284 283 282 281 280 279 278 277 276 276 276 276 276 276 276 276 275 274 273 271 270 269 268 268 269 270
302 302 303 303 301 299 298 298 298 298 297 296 295 294 293 292 290 289 289 289 289 289 289 289 289 289 289 289 290 290 291 292 293 293 294 294 294 293 292 291 290 289 288 288 288 288 288 287 287 287 287 286 286 286 286 286 286 286 286 285 284 283 281 280 280 279 277 277 276 276 277 277 277 277 277 277 276 275 273 271 270 268 268 267 268 268
300 299 298 297 296 295 296 296 297 297 297 295 294 292 290 289 288 288 289 290 290 290 291 291 291 291 290 290 291 292 292 293 294 294 294 294 293 292 290 289 288 287 287 287 287 287 287 287 286 286 285 285 285 285 285 285 285 285 285 285 284 283 282 281 280 279 278 277 277 278 278 279 279 279 278 277 276 275 274 272 270 269 268 268 267 267
298 296 295 292 291 291 292 294 296 296 295 294 293 291 288 287 288 290 291 292 292 292 292 293 293 293 293 293 293 294 294 295 295 294 294 293 291 290 289 288 287 287 286 286 286 286 286 286 286 285 285 284 284 284 284 285 285 285 285 285 284 283 282 281 280 279 278 278 279 280 280 280 280 279 277 276 275 274 274 273 272 271 270 270 269 268
297 295 292 290 289 290 292 294 295 295 293 291 291 291 291 293 295 296 296 295 295 295 296 296 296 296 295 295 296 296 296 295 295 294 293 291 290 288 287 287 286 286 286 286 286 286 286 286 285 285 284 284 284 285 285 286 287 287 287 286 285 284 283 281 280 280 279 280 280 280 280 280 279 277 276 274 274 273 273 272 272 271 271 270 270 269
293 292 290 288 287 291 295 297 297 296 293 291 291 294 300 302 302 301 300 298 298 298 299 299 299 298 297 297 297 296 295 294 293 292 291 290 288 288 287 287 287 286 286 286 286 286 285 285 285 285 285 285 285 286 287 287 287 287 287 286 285 284 283 282 281 281 281 281 281 280 280 279 278 276 275 273 272 272 271 270 270 269 269 269 268 268
290 288 288 288 290 293 296 298 298 297 295 295 296 298 300 301 302 302 302 301 301 301 300 300 300 299 299 298 297 296 295 293 291 290 289 288 288 287 287 287 287 286 286 286 285 285 285 285 285 286 286 286 286 287 287 287 287 286 286 285 285 284 283 283 282 282 281 281 281 280 279 278 277 276 275 273 272 271 270 269 268 268 267 266 266 266
289 289 290 295 297 297 295 295 297 300 302 303 302 300 299 299 301 303 303 303 303 303 302 301 300 299 299 298 298 296 294 293 291 290 288 287 287 287 287 287 286 286 286 285 285 285 285 285 285 285 285 286 286 286 286 286 286 286 285 285 284 284 283 283 282 282 282 281 281 280 279 278 277 276 274 273 272 271 270 268 267 266 265 265 265 266
289 295 298 299 299 298 296 297 301 306 309 308 305 303 302 302 303 304 303 303 303 303 303 302 300 298 297 297 296 295 294 292 291 290 290 289 289 288 288 288 287 286 286 285 285 285 285 284 284 284 285 285 285 285 286 286 285 285 285 285 284 284 283 283 283 282 282 281 280 279 278 277 276 275 274 273 271 270 269 267 266 265 265 265 265 266
295 300 299 297 296 297 301 307 311 311 310 308 306 305 305 305 305 304 302 300 300 301 301 301 299 298 296 295 294 293 292 292 291 291 291 291 291 292 292 290 289 288 288 287 286 285 284 284 284 284 285 285 285 285 285 285 285 284 284 284 284 284 284 283 283 282 281 280 279 278 278 277 276 275 274 273 271 270 268 266 265 265 265 265 265 266
300 299 297 295 297 304 312 314 312 309 307 306 305 304 304 305 304 303 301 299 298 299 299 298 297 296 295 294 292 292 292 292 293 293 293 292 293 294 294 292 291 290 290 289 287 286 285 285 285 284 284 284 284 284 284 284 284 283 283 283 283 283 283 283 282 281 281 280 280 279 278 277 276 275 274 273 271 270 269 268 267 266 266 266 266 267
300 298 297 302 309 313 312 311 308 306 305 305 305 304 304 303 302 301 299 298 297 298 298 296 295 294 294 293 294 295 295 295 296 296 295 294 294 295 295 293 292 291 290 288 286 285 285 284 284 283 283 283 282 282 283 283 283 283 283 283 283 283 283 282 282 281 281 281 280 279 278 277 276 275 275 274 273 272 272 272 271 271 271 270 270 269
301 304 310 314 312 310 308 307 306 305 304 304 304 304 303 302 300 299 297 295 296 296 297 296 295 294 295 296 298 299 301 300 299 298 297 296 295 295 295 293 291 290 288 286 285 284 284 284 284 284 283 283 283 284 284 284 283 284 284 284 284 284 283 283 282 282 280 279 278 277 277 277 278 278 278 277 277 277 276 276 277 276 276 275 273 272
310 315 314 311 308 306 305 305 304 303 303 303 303 302 301 298 297 295 293 292 292 293 293 294 294 295 299 302 302 302 304 304 301 299 297 295 295 295 294 292 289 287 286 285 284 285 286 286 285 285 284 284 284 284 284 284 284 284 284 285 285 285 284 284 282 281 279 278 277 277 278 279 280 281 281 280 280 279 279 278 278 277 276 275 274 272
313 311 308 306 304 304 304 304 303 303 303 302 302 301 299 296 293 291 289 288 288 289 292 295 296 298 301 302 302 303 305 304 302 299 296 294 294 294 294 291 288 285 285 285 286 287 287 286 285 285 285 284 284 284 284 284 284 285 285 285 285 284 283 282 281 280 280 279 280 280 281 281 281 281 280 280 279 278 277 277 276 275 274 273 272 271
307 305 304 302 302 302 302 301 301 301 300 300 300 299 296 293 291 288 286 286 287 291 296 299 299 298 297 296 298 301 304 304 301 298 295 293 293 293 293 290 287 285 286 287 288 288 288 286 284 284 283 283 283 283 284 284 285 284 284 284 283 282 282 281 281 282 282 283 283 283 282 282 281 280 279 279 278 277 276 276 275 274 273 272 271 269
301 300 300 300 300 300 299 298 297 296 296 295 294 292 289 289 288 286 285 288 294 298 300 299 297 295 295 295 296 299 303 303 300 296 293 291 291 291 292 291 289 289 289 288 289 288 287 284 283 281 281 281 282 283 283 283 283 283 283 283 282 282 282 282 283 283 284 284 283 283 282 281 280 279 278 277 276 276 275 275 274 274 273 272 271 269
297 297 297 297 297 296 295 294 293 292 291 290 288 286 286 288 291 294 298 301 301 300 299 296 293 294 295 295 296 298 301 300 297 293 291 289 289 290 292 293 292 291 289 289 289 288 286 284 282 281 280 280 281 282 283 284 284 284 284 283 283 283 283 284 284 284 284 283 283 282 281 280 279 278 277 277 276 275 275 275 274 274 273 273 272 271
293 294 294 295 293 291 290 289 289 288 288 287 286 288 292 300 304 305 304 303 301 298 296 293 292 293 294 294 294 295 296 294 290 288 289 288 288 290 294 295 293 290 288 289 289 289 287 285 283 281 281 282 284 284 285 285 285 285 285 285 285 285 285 285 284 284 284 283 282 282 281 280 279 278 278 277 276 276 275 275 274 274 273 273 272 271
290 290 292 292 291 290 288 288 289 291 293 294 297 301 304 305 305 303 301 300 298 295 294 293 292 293 292 291 291 292 292 290 288 286 288 286 288 292 295 296 294 290 288 290 291 292 290 288 286 284 284 285 285 285 285 285 285 285 285 284 285 285 285 284 284 284 284 283 283 282 281 281 280 279 278 278 277 276 275 274 274 273 272 271 271 270
290 290 290 291 292 292 293 294 297 300 303 304 304 304 303 302 300 298 297 296 295 294 294 293 293 293 292 292 292 292 293 293 291 290 289 286 287 291 295 296 294 292 290 292 293 294 293 290 288 286 285 285 285 285 285 285 285 285 284 284 284 284 284 284 284 284 284 283 283 282 281 280 279 279 278 277 276 275 274 273 272 272 271 270 269 269
292 291 292 294 297 299 300 301 302 303 304 304 303 302 301 300 299 298 297 295 294 293 293 292 292 293 294 295 295 295 296 296 294 291 288 287 288 291 294 295 294 292 292 293 294 294 292 291 289 287 285 284 285 285 285 284 284 284 284 284 284 284 284 284 284 284 283 283 282 281 280 280 279 278 278 277 276 275 274 273 272 271 270 270 269 268
294 295 297 300 302 302 302 302 302 301 302 302 302 301 302 301 301 299 297 295 294 294 293 290 290 292 296 297 297 296 298 299 296 292 288 288 289 291 294 295 294 291 292 294 295 295 293 292 291 290 288 285 284 284 283 282 282 282 283 283 284 284 284 284 284 284 283 283 282 282 281 280 280 280 279 278 277 276 275 274 273 272 271 270 270 269
298 301 303 304 304 304 303 302 302 302 302 301 301 301 301 301 301 298 296 295 296 296 294 290 289 293 296 297 296 298 300 301 299 295 290 288 288 290 293 296 295 294 294 295 296 295 293 292 290 289 288 285 283 281 280 279 279 280 282 284 285 285 285 285 285 285 284 284 283 282 282 281 281 280 279 278 276 275 274 273 272 272 271 270 270 270
305 306 306 305 305 304 304 303 303 302 302 301 300 300 301 300 299 297 295 297 297 296 293 291 292 294 295 294 297 299 300 300 299 297 294 291 287 288 293 298 299 297 297 297 297 296 293 290 288 286 284 284 283 282 281 280 281 283 285 286 287 287 287 286 286 285 284 284 283 282 281 280 279 278 277 276 275 274 273 272 271 271 270 269 268 267
310 309 308 307 306 305 304 303 302 302 301 300 300 300 300 299 296 293 293 295 295 294 292 292 293 293 294 296 298 299 299 299 300 301 302 297 291 290 296 299 300 300 300 300 299 298 294 291 289 287 286 287 288 287 287 287 287 287 288 287 287 286 286 285 284 284 283 282 281 281 280 279 277 276 275 274 274 273 272 271 271 270 269 267 265 263
314 312 311 309 307 306 305 303 302 300 299 299 299 300 299 296 292 289 290 292 291 290 291 293 295 296 296 298 298 297 297 301 304 308 308 303 295 294 298 299 299 300 302 302 302 299 296 296 295 294 293 294 294 293 293 292 290 288 287 287 285 284 283 283 283 283 283 282 282 281 280 279 278 277 277 276 275 275 274 273 272 271 269 267 264 262
315 313 311 310 308 307 305 304 302 301 300 300 300 300 299 296 292 290 289 290 288 287 290 292 294 295 297 297 297 295 298 303 306 309 308 302 295 294 297 298 299 300 301 301 300 299 300 300 300 300 299 298 297 296 295 294 292 289 289 287 285 283 283 284 285 285 284 284 284 283 282 282 281 280 279 278 277 276 275 274 273 272 270 268 266 263
313 312 310 309 308 307 306 304 304 303 303 303 302 302 300 298 295 293 291 290 288 287 288 291 293 293 293 291 289 289 293 300 303 306 305 300 295 294 297 297 298 299 299 297 295 294 298 301 303 303 302 300 299 297 296 295 293 291 291 289 286 284 286 288 288 288 287 287 286 285 284 283 282 281 280 278 277 276 275 273 272 270 268 267 265 262
311 310 309 308 307 306 306 305 305 306 306 306 305 304 303 301 298 296 293 291 289 289 288 290 292 293 292 290 288 288 291 295 299 303 304 301 296 296 298 298 297 298 298 296 293 290 288 291 299 301 301 301 300 299 298 297 295 293 291 289 287 286 289 290 291 290 289 288 287 286 284 283 281 280 278 277 276 275 273 272 270 267 265 263 261 259
310 309 308 308 307 307 307 308 309 309 309 308 308 306 305 303 301 298 297 294 292 291 289 289 289 290 292 291 290 290 293 295 298 302 303 300 297 295 297 297 297 298 298 297 295 293 290 290 294 298 301 301 301 300 299 298 296 294 292 290 289 289 290 291 291 291 289 288 287 285 283 282 280 278 277 276 274 273 271 269 267 265 262 260 258 256
309 308 308 309 310 311 311 312 312 312 311 310 309 308 307 305 303 301 299 297 296 293 290 288 286 286 288 289 290 292 294 296 299 301 301 298 295 294 296 296 297 298 297 296 296 294 289 291 294 296 298 301 301 301 300 299 298 297 295 293 291 290 290 291 290 289 289 287 285 283 281 280 279 277 276 275 273 271 269 268 266 263 261 258 256 253
309 309 310 312 313 314 314 314 314 313 313 311 311 310 309 307 306 304 302 300 298 296 293 289 287 285 284 284 285 287 290 293 297 299 298 296 294 292 293 294 296 297 295 294 293 293 289 291 294 296 297 296 299 301 302 303 302 300 297 295 293 292 291 290 288 287 286 285 283 281 280 279 278 276 275 274 272 270 269 267 265 263 261 258 255 253
309 310 312 315 316 316 315 315 314 314 314 313 312 311 310 309 307 305 303 301 299 297 295 292 289 287 284 282 282 283 286 289 292 294 294 293 291 290 289 291 293 294 292 292 292 293 292 291 293 295 294 291 294 300 304 305 305 303 299 297 296 294 292 290 287 285 283 282 281 280 280 279 277 276 275 274 273 272 269 267 264 262 260 258 256 253
312 313 315 316 317 317 315 315 314 314 313 313 312 310 309 308 307 305 303 301 299 298 297 294 292 290 290 287 284 284 286 286 288 290 291 291 290 288 286 287 289 289 288 288 289 291 292 292 294 296 295 293 296 300 302 304 304 303 301 300 298 295 292 290 288 286 283 281 281 281 281 280 279 278 277 276 275 273 270 267 264 261 258 257 255 253
315 315 316 317 317 316 315 314 313 313 312 311 310 309 307 307 306 306 304 302 301 300 298 296 293 292 292 290 289 287 287 287 288 290 291 291 289 288 287 286 287 287 287 286 286 287 288 289 290 294 299 300 301 301 302 301 301 301 301 303 302 299 295 293 292 290 287 285 284 283 283 282 281 279 277 277 275 272 269 267 264 261 257 254 252 251
316 316 316 316 315 314 314 312 312 312 312 311 310 309 308 307 307 308 307 305 304 303 302 299 297 295 293 292 291 291 291 291 291 292 292 291 290 288 286 286 286 287 288 288 287 286 288 289 292 295 297 298 299 300 300 299 298 299 302 304 304 302 301 299 297 293 290 287 285 283 284 284 284 282 279 277 274 271 268 266 265 262 257 250 245 245
317 316 315 315 314 314 313 312 311 312 312 311 311 310 310 310 310 310 310 310 308 308 307 306 303 300 298 297 295 295 295 296 295 294 294 294 293 291 288 286 286 288 290 291 292 292 293 293 294 294 294 293 293 294 294 294 295 298 300 299 298 299 300 300 298 295 293 290 288 287 286 286 286 285 283 281 278 275 273 269 266 263 258 251 243 237
316 315 314 314 314 313 313 312 312 312 313 312 312 311 311 311 311 311 311 312 312 312 312 310 308 306 304 303 303 303 303 302 301 299 298 298 297 295 291 290 290 292 294 296 296 296 295 293 291 290 289 290 291 291 291 293 295 297 297 295 296 299 301 302 301 300 298 296 295 293 291 289 288 288 288 287 286 285 283 278 273 267 260 252 244 237
315 314 313 313 313 313 313 313 314 314 315 314 313 312 312 312 312 311 311 311 311 312 313 312 310 307 306 307 309 311 311 309 307 306 304 303 302 301 299 299 299 300 300 298 297 295 294 292 289 287 286 287 288 287 287 292 295 296 296 296 297 300 303 304 305 305 304 301 299 298 295 293 292 292 293 293 294 294 294 290 285 279 271 261 250 241
313 313 313 313 313 314 315 315 316 316 315 314 313 313 313 313 312 312 311 310 310 310 310 311 310 309 307 308 311 314 314 313 312 312 311 310 310 310 309 308 306 304 301 296 293 293 295 294 292 289 288 287 285 284 285 289 292 294 296 297 298 296 291 294 299 301 302 302 302 302 301 300 300 300 300 300 301 301 301 300 298 296 292 284 269 253
314 314 314 315 315 316 316 315 315 315 314 314 313 312 314 314 314 313 312 310 310 310 311 312 311 311 311 312 313 315 316 316 316 317 317 318 318 318 315 312 309 306 302 297 293 291 292 292 292 292 292 289 285 282 282 285 288 292 295 299 299 297 292 294 295 296 298 299 301 304 306 308 308 306 305 304 306 307 307 307 306 306 307 306 296 278
316 316 316 316 316 315 315 315 315 315 315 314 313 313 314 315 315 314 313 311 310 310 311 313 312 310 310 312 314 316 317 318 320 321 322 322 322 321 319 316 313 310 305 300 297 293 289 286 287 289 291 291 288 284 281 282 284 288 294 299 302 301 300 300 300 300 299 300 302 306 311 314 313 310 308 308 309 309 310 311 312 313 316 317 313 302
317 317 316 316 315 315 315 315 316 316 315 315 314 314 315 316 316 315 314 313 312 312 313 314 312 309 308 310 313 315 316 318 320 322 323 323 324 324 323 321 319 316 310 305 301 297 293 289 285 283 282 283 286 287 285 284 285 288 293 298 301 303 303 305 306 307 309 308 308 312 317 318 317 314 314 314 313 312 313 315 318 322 324 325 322 315
317 316 316 315 314 314 315 316 316 316 315 314 314 315 317 317 317 316 315 315 314 314 313 314 313 311 309 311 313 314 316 318 319 321 323 324 325 326 326 325 324 322 319 315 311 306 302 300 294 286 277 269 269 281 286 289 291 293 294 297 299 300 301 304 309 314 317 318 320 322 323 322 320 318 316 316 317 318 318 319 323 328 332 332 329 324
315 315 315 314 314 314 314 315 316 315 314 314 315 316 317 318 318 317 315 315 315 314 313 313 312 312 312 313 315 316 318 320 320 320 322 324 326 327 328 328 328 328 327 326 325 323 321 318 314 304 287 269 262 267 278 287 294 298 299 300 301 301 303 307 313 319 324 326 328 330 331 328 326 323 321 318 316 318 323 326 329 333 337 338 336 332
315 314 314 314 313 313 313 314 314 314 313 314 314 315 316 318 318 318 317 316 315 314 313 312 311 312 313 315 316 318 321 321 321 321 322 324 327 328 328 330 331 332 333 333 335 336 335 333 331 328 319 292 272 266 272 286 297 304 308 310 312 312 311 314 319 325 329 330 332 334 334 334 333 333 331 327 319 318 325 331 335 337 339 341 341 339
315 315 314 313 313 313 313 313 313 313 312 313 313 313 314 316 317 318 318 317 317 316 314 313 312 313 314 316 318 320 322 321 321 321 322 324 327 328 328 329 331 333 335 336 338 340 340 337 334 332 331 329 317 300 292 296 302 308 314 320 324 324 322 321 326 331 334 335 336 337 338 338 339 339 338 336 329 323 326 331 335 337 339 341 343 343
Height
708 706 705 705 704 701 698 699 699 698 694 693 692 692 690 688 687 686 685 684 682 681 680 679 677 676 675 674 673 672 671 670 668 667 665 664 662 661 659 657 656 654 652 651 649 648 646 645 644 643 641 641 639 638 637 636 635 634 632 631 630 629 628 627 626 626 626 625 625 625 624 624 624 623 623 622 621 621 620 619 618 617 616 615 615 614
707 706 704 704 703 701 697 696 697 697 694 691 690 689 688 686 684 683 682 681 680 679 678 676 675 674 673 671 671 670 668 667 666 664 662 661 659 657 656 654 652 651 649 647 646 645 643 642 641 640 639 637 636 635 634 633 632 631 629 628 627 626 625 624 624 623 623 622 622 622 621 621 621 620 620 619 618 617 616 615 614 613 611 611 610 610
707 705 702 702 702 701 697 695 695 695 694 691 688 687 686 684 682 681 680 679 677 677 676 675 673 672 670 669 668 667 665 664 662 661 659 657 656 654 652 651 649 647 646 645 643 642 641 640 638 637 636 635 634 632 631 630 629 628 627 626 624 623 623 622 621 621 620 620 619 619 618 618 617 616 616 615 614 613 612 611 610 609 608 607 606 605
708 705 702 701 700 699 697 695 693 692 691 689 687 685 683 682 680 678 677 676 675 674 673 672 671 669 668 666 665 664 662 661 659 658 656 654 653 651 649 648 646 645 643 642 641 640 638 637 636 634 633 632 631 630 628 627 626 625 624 622 621 621 620 619 618 618 617 616 616 616 615 614 614 613 612 612 611 610 609 608 607 606 605 604 603 602
707 706 702 701 698 696 695 694 692 690 688 686 684 682 681 679 677 676 675 674 673 672 671 670 668 667 665 663 662 661 660 658 656 654 653 651 650 648 646 645 644 642 641 640 638 637 636 634 633 631 630 629 628 627 626 624 623 622 621 620 619 618 617 616 615 614 614 613 613 612 611 611 610 610 609 608 607 606 605 604 603 602 601 601 600 600
706 705 703 700 697 694 692 691 690 688 686 683 681 680 678 676 675 674 673 672 671 670 668 667 666 664 663 661 659 658 656 655 653 651 650 648 647 645 644 642 641 639 638 637 635 634 632 631 630 629 627 626 625 624 622 621 620 619 618 616 615 614 613 612 611 611 610 610 609 609 608 607 606 606 605 605 603 602 601 601 600 599 598 597 597 596
703 702 701 698 695 692 691 689 688 686 684 681 679 677 676 674 673 672 671 670 669 667 666 664 663 661 660 658 657 655 653 651 650 648 647 645 644 642 641 639 638 636 635 634 632 631 629 628 627 626 624 623 622 621 619 618 617 616 615 613 612 611 610 609 608 608 607 606 606 605 605 604 603 602 602 601 600 599 598 597 596 596 595 594 594 594
701 699 698 696 693 691 688 687 686 685 683 680 677 675 674 673 672 671 670 668 667 666 664 661 660 658 657 656 654 652 650 648 647 645 644 642 641 639 637 636 635 633 632 631 629 628 626 625 624 622 621 620 619 617 616 615 614 613 611 610 609 608 607 606 605 604 604 603 602 602 601 601 600 599 598 597 597 596 595 594 593 592 592 591 591 591
701 696 694 693 692 690 687 684 683 683 681 679 677 675 673 672 670 669 667 666 664 663 662 660 657 655 653 652 651 650 648 646 644 642 641 639 637 636 634 633 631 630 629 627 626 625 623 622 621 619 618 617 616 614 613 612 611 610 608 607 606 605 604 603 602 601 601 600 599 598 598 597 596 596 595 594 593 592 592 591 590 590 589 588 588 587
698 695 692 691 690 689 687 682 680 680 680 678 676 675 674 672 669 666 664 662 661 661 660 658 655 652 650 649 648 647 645 643 641 640 638 636 634 633 631 630 628 627 626 624 623 621 620 619 618 616 615 614 613 612 611 609 608 607 606 604 603 602 601 600 599 598 597 596 596 595 594 593 593 592 591 590 590 589 588 588 587 586 586 585 585 584
695 693 692 690 688 687 685 682 679 678 678 677 675 674 673 671 669 665 661 658 657 657 656 656 654 651 648 646 644 643 642 640 637 636 635 633 632 630 629 627 626 624 623 621 620 619 618 616 615 614 613 611 610 609 607 606 605 604 602 601 600 599 598 597 596 595 594 593 592 591 591 590 589 588 587 586 586 585 585 584 584 583 583 582 581 581
693 692 690 688 686 684 682 680 679 678 677 676 674 671 669 669 668 666 662 658 655 654 653 651 651 649 647 645 642 640 638 636 634 632 631 630 629 627 626 624 623 621 620 618 617 616 615 614 613 611 610 609 607 606 605 603 602 601 599 598 597 596 595 593 592 591 591 590 589 588 587 586 586 585 584 583 582 582 581 581 580 580 579 579 578 578
692 691 689 686 684 682 681 680 678 677 676 675 672 670 667 666 666 665 662 658 655 653 651 649 646 645 644 643 641 638 636 634 631 630 628 627 626 625 624 622 620 619 617 616 614 613 612 611 610 608 607 606 604 603 601 600 599 597 596 595 594 592 591 590 589 588 587 586 585 585 584 583 582 581 580 580 579 578 578 577 576 576 576 575 575 575
691 689 686 684 683 682 681 680 678 676 675 673 671 669 667 665 664 663 661 657 654 652 650 647 644 641 640 640 638 636 634 632 630 628 626 625 625 624 622 620 618 616 615 613 611 610 609 608 606 605 604 603 601 600 599 597 596 595 593 592 591 590 588 587 586 585 584 583 582 581 580 579 578 577 577 576 575 575 574 573 572 572 572 571 571 571
689 687 685 684 683 682 681 679 677 675 673 671 670 668 666 664 663 661 659 655 651 649 647 644 641 638 637 636 636 635 633 631 628 626 624 623 622 622 621 618 616 614 612 611 609 607 606 605 604 602 601 599 598 597 596 594 593 591 590 589 588 586 585 584 583 582 581 580 579 578 577 576 575 574 573 572 571 571 570 569 567 567 567 567 567 567
688 687 686 684 683 681 680 678 676 674 671 670 669 667 666 663 661 659 657 653 650 647 645 641 638 635 633 633 633 633 632 630 627 625 622 620 619 619 619 616 613 611 609 608 606 604 603 602 601 599 598 596 595 594 593 591 590 588 587 586 585 583 582 581 580 579 577 576 575 574 573 572 571 570 569 568 568 567 566 566 565 564 564 563 563 563
688 687 686 684 681 679 678 676 675 673 671 669 667 666 665 662 659 657 654 651 648 645 643 641 637 633 629 628 629 631 631 629 626 623 621 618 616 616 616 614 611 607 606 605 603 601 601 599 598 596 595 594 592 591 590 588 587 586 584 583 581 580 579 578 576 575 574 573 572 571 570 568 567 567 566 565 564 564 563 562 562 561 561 560 560 560
688 687 685 683 680 678 676 675 673 671 670 668 666 664 661 659 657 654 651 649 647 644 642 640 637 635 631 626 625 626 629 628 625 622 619 616 613 612 612 611 608 605 603 601 600 599 598 596 595 594 592 591 589 588 586 585 584 582 581 580 578 577 576 574 573 572 571 569 568 567 566 565 564 563 562 562 561 560 560 559 558 558 557 557 556 556
687 686 684 682 679 677 675 673 672 670 668 666 664 661 658 655 653 651 649 647 646 644 641 639 636 634 631 627 625 624 627 626 624 620 617 613 611 609 609 608 606 603 601 599 598 596 596 594 592 591 590 588 586 585 583 582 581 579 578 576 575 574 572 571 570 568 567 566 565 564 563 562 561 560 559 558 557 557 556 556 555 554 554 553 553 552
686 684 683 681 678 676 673 671 670 669 667 664 661 659 655 652 650 649 647 646 644 643 641 639 636 632 630 627 624 623 624 624 622 619 615 611 608 606 606 605 603 601 598 596 595 594 592 591 589 587 586 584 583 581 580 579 577 576 575 573 572 570 569 567 566 565 564 563 561 561 560 559 557 556 556 555 554 553 552 552 551 551 550 549 549 548
684 681 680 679 678 675 671 669 667 666 664 662 659 656 653 651 649 647 646 645 643 641 639 637 634 631 629 626 623 622 623 623 621 617 612 608 605 603 603 603 601 599 596 593 592 591 590 588 586 584 582 581 579 578 577 575 574 572 571 570 568 567 566 564 563 562 561 560 558 557 556 555 554 553 552 551 550 550 549 548 547 547 546 546 545 545
682 679 677 677 676 674 671 667 665 663 662 660 657 655 652 650 648 646 645 643 641 639 637 635 632 630 628 626 623 621 621 621 619 616 611 606 602 600 601 601 600 596 593 591 589 588 587 585 583 581 579 578 576 575 574 572 571 569 568 566 565 564 562 561 560 558 557 556 555 553 552 551 550 549 548 547 546 546 545 544 544 543 542 542 541 541
681 678 676 674 673 671 669 666 663 661 660 659 657 655 653 651 649 646 644 642 640 637 635 632 630 628 626 624 621 620 619 618 617 615 611 606 601 598 599 599 597 594 591 588 587 586 584 582 580 578 576 575 573 572 571 569 568 566 565 563 562 560 559 557 556 555 553 552 551 550 548 547 546 545 544 543 542 541 541 540 540 539 539 538 537 537
678 676 674 672 671 669 667 665 662 661 659 658 656 655 653 651 649 646 644 641 639 636 633 631 628 625 623 621 619 617 616 616 615 613 610 605 600 597 596 597 595 592 588 586 585 584 581 579 577 575 573 572 570 569 568 566 565 563 561 560 558 557 556 554 552 551 550 549 547 546 545 543 542 541 541 540 539 538 537 536 536 535 535 534 533 533
676 674 672 670 669 667 666 664 662 661 659 657 655 653 651 649 647 645 642 640 638 635 632 629 626 623 620 618 616 615 614 614 613 612 609 604 599 596 595 595 593 590 586 583 582 581 579 576 574 572 570 568 567 566 564 563 561 560 558 556 555 553 552 551 549 548 546 545 544 542 541 540 538 537 536 536 535 534 533 532 532 531 531 530 530 529
674 673 671 669 668 666 665 663 661 659 658 656 654 651 649 647 645 642 640 638 636 634 631 628 624 621 618 617 615 613 611 611 611 610 608 604 598 594 592 593 592 589 584 581 580 579 576 573 571 569 567 565 563 562 561 559 557 556 555 553 552 550 549 547 546 544 543 541 540 538 537 536 535 534 532 531 531 530 529 528 528 527 526 526 525 525
673 671 670 668 666 664 662 661 659 657 656 654 652 651 648 646 643 641 638 636 635 633 630 627 623 619 616 615 613 611 610 609 609 607 606 603 598 594 591 591 590 587 583 579 577 576 574 571 568 565 563 561 559 558 556 555 554 553 551 550 549 547 546 544 542 541 539 538 536 535 534 532 531 530 529 528 527 526 525 525 524 523 523 522 521 520
671 670 668 666 664 662 660 658 657 655 654 652 650 649 647 645 642 639 636 635 634 632 629 626 623 619 616 613 611 609 608 608 606 605 604 602 598 593 590 589 588 586 582 577 574 572 571 568 565 562 560 558 556 555 553 552 551 550 549 547 546 544 543 541 539 537 536 534 533 531 530 529 527 526 525 524 523 522 521 520 520 519 519 518 517 516
669 667 666 664 662 660 658 656 655 653 651 650 648 647 646 644 641 639 636 634 633 631 628 625 622 619 616 612 609 607 606 606 605 604 602 600 596 592 590 588 586 584 581 577 572 568 567 565 563 560 557 555 554 552 551 550 549 548 546 545 543 541 539 537 536 534 532 531 529 528 526 525 524 522 521 520 519 518 517 516 516 515 514 513 512 511
666 665 663 661 659 658 656 654 652 650 649 647 646 645 643 642 640 638 636 634 632 630 627 624 621 619 616 612 608 605 602 602 602 603 601 599 595 591 588 587 585 583 581 578 571 565 561 559 559 558 556 554 552 551 549 548 547 545 543 541 539 537 536 534 532 531 529 527 526 524 522 521 520 518 517 516 515 513 513 512 512 511 510 509 508 506
664 662 661 659 657 655 654 652 650 648 646 645 644 642 641 640 638 636 634 633 631 629 626 623 621 618 616 614 610 605 600 599 600 601 601 598 593 589 588 586 583 582 581 580 575 567 559 554 553 554 554 553 551 549 547 546 544 542 540 538 536 533 532 531 529 527 525 524 522 521 519 517 516 515 513 512 511 509 508 508 508 507 506 505 503 502
663 661 659 657 655 653 651 650 648 646 645 643 642 640 639 638 636 635 633 631 630 628 625 622 620 618 616 614 611 606 601 599 599 600 599 597 592 588 587 586 583 580 579 579 577 572 564 555 550 550 551 550 549 547 545 544 542 540 537 535 532 530 528 527 526 524 522 521 519 517 516 514 512 511 509 508 506 505 504 504 504 503 502 501 499 498
662 660 657 656 653 651 650 648 646 645 643 641 640 639 637 636 635 633 631 630 628 627 625 622 619 616 614 612 609 606 602 599 598 598 598 596 591 588 586 584 582 579 577 576 575 572 568 561 554 549 547 547 546 545 543 541 539 537 535 533 530 527 526 525 523 521 520 518 516 514 512 510 508 507 505 504 502 501 500 499 499 499 498 497 496 494
660 658 656 654 652 650 648 646 645 643 642 640 638 637 636 634 633 631 630 628 627 625 623 621 619 616 613 610 606 603 600 598 597 597 596 595 591 587 584 583 581 578 576 574 572 570 566 561 557 552 547 544 543 542 541 539 537 535 533 531 529 526 524 522 521 519 516 515 512 510 508 506 504 502 501 499 498 497 496 495 494 494 493 492 491 490
658 656 654 652 650 648 646 645 643 642 640 639 637 636 634 632 631 629 628 626 625 623 621 620 618 615 612 609 606 601 598 596 596 596 595 593 590 587 584 581 580 578 575 572 570 567 564 560 556 553 549 544 540 538 538 537 535 533 531 529 527 524 522 520 518 516 514 511 509 506 504 502 500 498 496 495 493 492 491 490 489 489 488 487 487 486
657 655 653 651 649 647 646 644 642 640 639 637 636 634 632 631 629 627 626 624 622 621 619 617 616 614 611 609 606 602 598 595 594 593 593 591 589 586 583 580 578 577 575 571 569 566 563 559 555 552 550 545 540 536 534 533 532 531 529 526 524 522 520 518 516 514 511 509 506 503 501 499 496 494 492 490 489 487 486 485 484 483 482 482 481 481
656 654 652 650 649 647 645 643 641 639 637 636 634 632 631 629 627 626 624 622 620 618 616 615 613 611 609 607 604 601 598 595 592 591 590 589 587 585 582 579 577 576 574 571 568 565 562 558 554 551 548 545 541 536 532 530 529 528 526 524 522 520 517 515 513 511 509 506 503 500 498 496 493 491 488 486 484 483 481 480 479 478 477 476 476 475
655 653 651 650 648 646 644 642 640 638 636 635 633 631 629 627 626 624 622 620 618 616 614 612 610 607 606 604 601 599 596 594 591 589 588 587 586 584 581 578 576 574 572 571 568 565 562 559 555 550 546 543 540 537 534 531 528 525 523 521 520 517 515 512 510 508 506 503 500 497 495 492 490 487 485 482 481 479 477 475 474 473 472 471 470 470
655 652 651 649 647 646 644 641 640 637 636 634 632 630 628 626 624 622 620 618 616 614 612 610 607 605 602 600 598 596 594 591 590 588 586 585 583 582 580 577 574 572 571 569 567 565 562 559 555 551 547 543 539 536 534 531 529 525 521 519 516 514 512 510 508 506 503 501 498 495 492 489 487 485 482 479 477 475 473 471 469 467 467 466 465 464
654 652 650 649 647 645 643 641 639 637 635 633 631 629 626 624 622 620 618 616 614 612 610 607 605 602 600 597 595 593 591 590 588 586 584 583 581 580 578 575 573 571 568 567 565 563 561 558 555 552 549 545 541 537 534 531 528 525 522 519 515 511 508 507 505 503 501 498 495 492 489 486 484 481 478 476 474 471 469 466 465 463 462 461 461 460
654 652 650 648 646 644 642 640 638 636 634 632 629 627 625 623 621 618 616 614 611 610 607 605 602 600 597 595 593 591 590 588 586 584 582 581 579 577 576 574 571 569 567 566 564 562 560 557 555 551 549 546 542 539 534 530 527 525 523 520 516 511 507 505 502 500 498 495 492 490 487 484 481 478 475 472 470 467 465 463 461 459 458 457 456 456
654 652 650 647 645 643 641 639 637 635 633 631 629 626 624 622 620 617 615 612 610 607 605 603 601 597 594 592 590 589 588 586 584 582 581 579 577 576 574 572 571 569 567 565 562 560 558 556 554 551 548 545 542 539 534 529 526 524 523 520 516 511 506 502 499 498 496 493 490 487 485 482 478 475 472 469 466 463 461 459 457 455 454 452 451 451
653 651 649 647 645 643 641 638 636 634 632 630 627 626 623 621 620 617 615 612 609 606 604 602 600 597 594 591 588 586 585 584 582 581 579 577 576 574 573 571 570 568 566 564 561 558 556 554 552 550 547 545 542 539 534 529 526 523 521 518 516 512 507 501 496 495 493 491 488 485 482 479 476 473 470 467 463 460 457 455 453 452 450 449 447 446
653 651 649 646 644 642 640 637 635 633 631 629 626 624 622 620 619 616 614 611 608 606 603 601 598 596 593 590 587 584 582 581 580 579 577 576 574 573 572 570 568 567 565 563 560 557 554 552 550 547 545 543 541 538 534 530 526 522 519 516 515 512 508 502 497 494 491 488 485 482 480 477 474 471 468 465 461 458 455 453 450 448 447 446 444 443
652 650 648 646 643 641 639 637 634 632 630 628 626 623 621 619 617 616 613 611 608 605 603 601 598 595 592 589 586 584 581 579 578 576 575 574 573 572 571 569 566 565 563 561 559 556 554 551 548 545 543 541 539 536 533 529 526 521 518 515 512 510 506 501 498 494 491 487 484 481 478 475 472 470 466 463 460 456 453 451 448 446 444 442 441 440
652 649 647 645 643 641 639 636 634 631 629 627 624 622 620 618 616 614 612 610 607 605 602 600 598 596 592 589 586 584 581 579 576 575 574 572 571 570 568 567 565 563 561 559 557 555 553 550 547 544 541 539 537 534 531 528 525 521 517 514 511 507 503 499 496 493 490 487 483 480 476 474 471 469 466 462 459 455 452 449 447 445 442 440 438 437
651 649 647 644 642 640 638 636 633 631 628 626 623 621 619 617 615 613 611 609 607 604 602 600 598 596 593 590 587 585 582 579 576 574 573 571 569 568 566 565 563 561 560 557 555 552 550 548 545 543 541 539 536 532 528 526 524 521 517 514 510 506 502 498 494 491 488 486 483 479 476 473 471 468 465 461 458 454 451 448 446 443 441 438 436 434
651 649 646 644 642 639 637 635 633 630 628 625 622 620 618 616 615 613 610 608 606 604 601 599 597 594 592 590 587 585 583 580 577 575 573 571 569 567 565 563 561 559 557 555 553 550 548 545 543 541 539 538 535 531 527 524 522 520 517 513 510 506 502 498 494 490 487 485 482 479 476 474 471 468 465 461 457 454 450 447 444 441 439 436 434 431
650 648 646 644 641 639 636 634 632 630 627 624 621 619 617 615 614 612 610 608 606 603 601 599 596 594 591 589 586 585 583 581 578 576 573 571 569 567 564 562 560 557 555 552 550 547 545 542 540 538 537 536 534 531 527 524 521 519 516 513 509 506 502 497 494 490 487 485 481 479 476 474 471 468 465 461 458 454 450 446 443 440 437 435 432 429
649 647 646 643 641 639 636 634 631 629 627 624 621 618 616 614 612 611 609 607 605 603 601 599 596 594 591 588 586 584 582 580 578 576 574 571 570 567 565 562 560 557 554 551 548 546 543 540 537 536 534 533 532 530 528 524 521 518 515 512 509 505 501 498 494 491 488 485 482 479 476 473 471 468 465 462 458 454 450 446 443 440 436 433 430 427
648 646 645 643 641 638 636 633 631 629 626 624 621 618 616 613 611 610 608 606 604 602 600 598 596 594 591 589 586 584 582 581 578 576 574 572 570 568 566 564 561 559 556 553 550 547 545 541 538 535 533 532 531 530 528 526 522 519 516 512 508 505 502 498 495 491 488 485 482 480 476 474 471 468 465 462 459 455 451 447 444 441 437 434 430 426